This demonstration page uses our WeatherBlox Daily Observations layout. Learn more.

Left ArrowRight Arrow

53.62937, 11.41316

Hourly Observations for January 21, 2019

Temp ( °F °C ) Dew Point ( °F °C ) Humidity (%) Winds ( mph kmh ) Pressure ( in mb ) Visibility ( mi km ) Precip ( " mm )
7:50 am 07:50 Partly Cloudy with Mist and Fog 23 -5 21 -6 93 93 S 3 6 30.15 1021 3 4 N/A
8:20 am 08:20 Partly Cloudy with Mist and Fog 23 -5 21 -6 93 93 S 5 7 30.15 1021 3 4 N/A
8:50 am 08:50 Mostly Sunny 23 -5 21 -6 93 93 S 6 9 30.15 1021 3 5 N/A
9:20 am 09:20 Mostly Sunny 23 -5 23 -5 100 100 SSW 7 11 30.15 1021 4 6 N/A
9:50 am 09:50 Mostly Sunny 23 -5 23 -5 100 100 S 8 13 30.15 1021 4 6 N/A
10:20 am 10:20 Mostly Sunny 23 -5 23 -5 100 100 S 7 11 30.15 1021 4 6 N/A
10:50 am 10:50 Mostly Sunny 25 -4 23 -5 93 93 S 6 9 30.12 1020 4 7 N/A
11:20 am 11:20 Partly Cloudy 25 -4 23 -5 93 93 S 6 9 30.12 1020 5 8 N/A
11:50 am 11:50 Mostly Cloudy with Light Snow 25 -4 23 -5 93 93 S 7 11 30.12 1020 5 8 N/A
12:20 pm 12:20 Mostly Cloudy with Light Snow 27 -3 25 -4 93 93 S 6 9 30.09 1019 4 7 N/A
12:50 pm 12:50 Mostly Cloudy with Light Snow 27 -3 25 -4 93 93 S 7 11 30.09 1019 2 3 N/A
1:20 pm 13:20 Mostly Cloudy 27 -3 27 -3 100 100 S 7 11 30.09 1019 5 8 N/A
1:50 pm 13:50 Partly Cloudy 28 -2 27 -3 93 93 SSW 8 13 30.09 1019 4 7 N/A
2:20 pm 14:20 Partly Cloudy 28 -2 28 -2 100 100 SSW 8 13 30.06 1018 30 48 N/A
2:50 pm 14:50 Mostly Cloudy 30 -1 28 -2 93 93 SSW 8 13 30.06 1018 30 48 N/A
3:20 pm 15:20 Mostly Cloudy 30 -1 28 -2 93 93 S 7 11 30.06 1018 30 48 N/A
3:50 pm 15:50 Mostly Cloudy 30 -1 28 -2 93 93 SSW 7 11 30.06 1018 30 48 N/A
4:20 pm 16:20 Mostly Cloudy 30 -1 28 -2 93 93 S 6 9 30.06 1018 30 48 N/A
4:50 pm 16:50 Mostly Cloudy 30 -1 27 -3 86 86 SSW 7 11 30.03 1017 30 48 N/A
5:20 pm 17:20 Mostly Clear 28 -2 27 -3 93 93 S 6 9 30.03 1017 30 48 N/A
5:50 pm 17:50 Mostly Cloudy 28 -2 27 -3 93 93 SW 6 9 30.03 1017 30 48 N/A
6:20 pm 18:20 Mostly Cloudy 30 -1 27 -3 86 86 SW 6 9 30.03 1017 30 48 N/A
6:50 pm 18:50 Mostly Cloudy 30 -1 28 -2 93 93 SW 9 15 30.03 1017 6 9 N/A

Powered by AerisWeather